SCP
0 0 0 0 0 0 0 0 0 0 1 0 0 1 0 0 0 0 0 0 1 0 0 0 0 0 0 0 0 0 0 0 0 0 0 0 0 0 0 0 0 0 1
0 0 0 0 0 0 0 0 0 0 1 0 0 1 1 0 1 0 0 1 0 1 0 0 0 0 0 0 0 0 0 0 0 0 0 0 0 0 0 0 0 0 1
0 0 0 0 0 0 0 0 0 0 0 0 0 0 0 0 0 0 0 0 0 0 0 0 0 0 0 0 0 0 0 0 0 0 0 0 0 0 0 0 0 0 0
0 0 0 0 0 0 0 0 0 0 0 0 0 0 0 1 0 0 0 0 0 0 0 0 0 0 0 0 -0 0 0 0 0 0 0 0 0 0 0 0 0 0 0
0 0 0 0 0 0 0 0 0 0 0 0 0 0 1 0 0 0 0 0 0 0 0 0 0 0 -0 0 0 0 0 0 0 0 0 0 0 0 0 0 0 0 0
0 0 0 0 0 0 0 0 0 0 0 0 0 0 0 0 0 0 0 0 0 0 0 0 0 -0 0 0 0 0 0 0 0 0 0 0 0 0 0 0 0 0 0
0 0 0 0 -0 -0 0 0 0 0 0 0 0 0 0 0 0 0 0 0 0 0 0 -0 -0 0 0 0 0 0 0 0 0 0 0 0 0 0 0 0 0 0 0
0 0 0 -0 -0 -0 -0 0 0 0 0 0 0 0 0 0 0 0 0 0 0 0 -0 -0 -0 0 0 0 0 -0 -0 0 0 0 0 0 0 0 0 0 0 0 0
0 0 -0 -0 -0 -0 -0 -0 0 0 0 0 0 0 0 0 0 0 0 0 -0 0 -0 -0 0 0 0 0 -0 -0 0 0 0 0 -0 0 0 0 0 0 0 0 0
-0 -0 -0 -0 -0 -0 -0 -0 0 0 0 0 0 0 0 0 0 0 0 -0 0 -0 -0 0 0 0 0 0 0 0 0 0 0 0 0 0 0 0 0 0 0 0 0
-0 -0 -0 -0 -0 -0 -0 -0 0 0 0 0 0 0 0 0 0 0 -0 0 -0 -0 0 0 0 0 0 0 0 0 0 0 0 -0 0 0 0 0 0 0 0 0 0
-0 -0 -0 -0 -0 -0 -0 -0 0 -0 0 0 0 0 0 0 0 0 -0 0 -0 -0 -0 0 0 0 0 0 0 0 0 0 -0 -0 0 0 0 0 0 0 0 0 0
-0 -0 -0 -0 -0 -0 -0 -0 0 -0 0 0 0 0 0 0 0 0 0 -0 -0 -0 -0 0 0 0 0 0 0 0 0 0 0 -0 0 -0 0 0 0 0 0 0 0
-0 -0 -0 -0 -0 -0 -0 -0 0 -0 0 0 0 0 0 0 0 0 0 0 -0 -0 -0 0 0 0 0 0 0 0 0 0 0 0 0 0 0 0 0 0 0 0 0
-0 -0 -0 -0 -0 -0 -0 -0 0 -0 -0 0 0 0 0 0 0 0 0 0 -0 -0 -0 -0 -0 0 0 0 0 0 0 0 0 0 0 0 0 0 0 0 0 0 0
-0 -0 -0 -0 -0 -0 -0 -0 -0 -0 -0 0 0 0 -0 0 -0 -0 -0 -0 0 0 -0 -0 -0 -0 0 0 0 0 0 0 0 0 0 0 0 0 0 0 0 0 0
-0 -0 -0 -0 -0 -0 -0 -0 -0 -0 -0 0 0 0 -0 -0 0 0 0 0 -0 0 0 -0 -0 -0 0 0 0 0 0 0 0 0 0 0 0 0 0 0 0 0 0
-0 -0 -0 -0 -0 -0 -0 -0 -0 -0 -0 0 0 0 -0 0 0 0 0 0 0 0 -0 0 -0 0 0 0 -0 0 0 0 0 0 0 0 -0 0 0 0 0 0 0
-0 -0 -0 -0 -0 -0 -0 -0 -0 -0 -0 0 0 0 0 0 -0 0 0 0 0 0 0 0 0 -0 0 0 -0 -0 0 0 0 0 0 0 -0 0 -0 -0 -0 0 0
-0 -0 -0 -0 -0 -0 -0 -0 -0 -0 -0 0 0 0 0 0 0 0 0 0 0 0 0 0 0 0 0 0 0 0 0 -0 0 0 0 -0 -0 -0 0 0 0 0 0
-0 -0 -0 -0 -0 -0 -0 -0 -0 -0 -0 0 0 0 -0 0 0 0 0 0 0 0 0 0 0 0 0 0 0 0 0 0 0 0 0 0 -0 0 0 0 0 0 -0
0 -0 -0 -0 -0 -0 -0 -0 -0 0 -0 -0 0 0 0 -0 0 0 0 0 0 0 0 0 0 0 0 0 0 0 0 0 0 0 0 -0 -0 -0 0 0 0 -0 -0
-0 -0 -0 -0 -0 -0 -0 -0 0 -0 -0 -0 -0 -0 0 0 0 -0 -0 0 0 0 0 0 0 0 0 0 0 0 0 0 0 0 -0 -0 -0 0 0 0 0 0 0
-0 -0 -0 -0 -0 -0 -0 -0 -0 -0 -0 -0 -0 -0 -0 -0 0 0 0 0 0 0 0 0 0 0 0 0 0 0 0 -0 -0 -0 -0 -0 -0 -0 -0 -0 -0 0 -0
0 0 -0 -0 -0 -0 -0 -0 -0 -0 -0 -0 -0 0 -0 -0 -0 0 0 0 0 0 0 0 0 0 0 0 0 0 0 0 -0 -0 -0 -0 -0 0 0 0 0 -0 -0
0 0 0 0 -0 -0 -0 -0 -0 -0 -0 -0 -0 -0 0 0 -0 0 -0 0 0 0 0 0 0 -0 -0 0 -0 -0 0 -0 -0 0 0 0 0 0 0 0 -0 -0 -0
Wind_Speed_500mb
65 58 38 26 29 44 49 54 58 57 61 52 43 32 24 20 22 23 29 29 27 23 24 24 23 25 25 24 26 28 29 30 26 22 21 21 20 19 20 19 20 19 18
59 39 34 33 38 39 46 51 58 65 55 42 32 25 19 19 18 22 26 23 22 22 23 22 18 20 22 24 25 29 30 32 28 19 18 14 12 16 16 14 16 14 16
47 27 28 30 36 40 46 58 67 56 45 38 30 21 17 13 13 16 20 17 17 16 16 13 15 14 14 16 19 22 26 29 31 24 15 11 14 19 13 14 17 14 14
39 29 27 28 31 40 50 63 57 47 40 34 25 16 11 6 10 16 15 14 10 8 4 11 14 10 8 7 7 14 23 28 26 25 24 15 17 18 12 13 15 13 12
27 31 25 22 27 38 60 57 50 43 37 28 22 12 4 5 11 15 15 12 7 4 6 11 10 7 4 6 12 18 23 22 22 25 23 19 19 20 16 15 15 15 16
23 20 20 23 35 55 61 54 45 40 33 26 19 10 1 4 14 17 15 7 9 10 12 14 14 11 6 7 11 17 19 18 16 16 26 20 8 16 19 16 20 20 18
8 23 36 46 62 69 60 50 43 39 31 25 20 9 2 7 14 17 9 4 11 18 18 17 16 13 9 9 10 13 14 14 13 17 25 24 12 7 9 16 26 25 28
20 31 41 60 70 66 56 49 43 34 29 27 18 10 5 7 10 12 7 14 22 22 19 17 13 11 8 8 6 9 11 9 7 14 23 25 19 4 13 18 38 33 23
29 37 49 65 68 61 53 47 40 31 28 25 18 11 8 6 8 13 13 17 21 22 17 15 11 8 7 4 4 8 9 7 6 17 22 22 15 9 15 16 25 28 26
35 44 54 65 62 53 47 44 33 29 29 23 19 12 5 4 6 9 10 14 18 19 15 14 11 6 8 5 6 6 6 11 14 13 13 13 11 19 15 19 28 23 30
37 45 54 62 57 50 48 41 34 30 29 23 19 13 2 3 2 2 6 12 17 18 14 12 11 6 7 8 8 6 8 15 18 15 15 15 24 27 14 30 27 38 44
38 46 52 61 55 52 49 38 34 30 26 21 17 15 6 1 1 2 7 12 18 18 14 11 11 12 12 16 16 15 18 17 15 16 16 18 27 32 23 32 31 37 36
43 48 53 58 54 52 48 38 33 29 25 21 16 13 6 2 1 9 13 19 19 20 17 17 17 18 22 21 21 20 21 24 21 19 17 20 26 35 29 36 39 39 34
50 53 55 54 51 52 47 38 33 29 25 21 17 13 10 5 5 19 20 19 21 23 24 25 26 22 21 21 22 23 23 27 30 32 34 28 22 29 26 31 36 40 48
49 54 57 54 55 53 47 39 34 30 28 23 21 16 13 12 19 23 24 25 26 25 25 27 25 20 20 22 26 27 27 29 33 35 32 28 23 21 25 31 47 49 50
49 53 57 56 56 55 49 43 39 34 29 26 24 21 18 23 27 25 25 27 25 26 26 23 20 18 21 21 18 15 14 22 29 34 30 30 31 40 39 37 44 53 67
57 63 63 64 58 56 51 46 43 36 30 28 27 26 22 30 28 25 22 22 23 24 22 20 18 17 18 19 16 13 15 21 27 29 28 36 39 40 39 33 39 52 50
54 59 63 66 57 54 50 44 45 39 33 31 31 33 27 27 27 25 21 19 21 21 17 13 14 17 21 25 19 22 21 24 32 35 35 39 40 36 41 47 50 46 45
58 65 66 65 57 57 54 49 48 43 37 35 35 39 34 28 28 24 22 18 20 21 18 15 12 17 19 23 22 21 21 29 35 40 34 43 42 43 46 49 49 46 42
56 61 65 65 57 58 58 54 51 50 43 39 37 41 38 30 28 20 18 16 19 18 17 16 15 20 22 26 29 21 27 38 42 39 43 37 44 47 38 32 34 35 36
51 58 67 70 62 62 62 59 54 56 46 39 39 39 40 31 29 24 21 15 16 19 19 21 24 24 24 28 28 28 26 35 40 40 42 41 41 35 32 36 37 36 37
55 64 69 71 64 62 64 64 61 55 49 43 41 39 42 36 34 29 25 21 16 21 24 26 30 30 29 27 30 30 26 31 47 44 42 45 37 41 36 37 37 35 35
57 63 73 74 69 65 65 66 60 59 55 48 45 41 41 39 38 32 32 26 21 20 26 27 31 33 32 31 31 31 30 32 33 33 41 43 47 38 42 42 36 29 26
57 67 71 80 80 72 65 58 62 62 60 55 49 46 42 46 40 37 32 28 25 23 27 30 29 30 32 32 31 30 30 30 31 33 39 37 35 37 40 36 32 26 22
50 70 79 85 85 80 69 64 62 68 68 61 54 51 49 45 46 44 39 35 29 21 19 26 32 34 33 30 29 31 32 31 31 33 35 37 38 40 42 40 35 29 25
45 66 77 79 83 86 78 69 67 69 69 69 63 59 56 53 51 49 46 41 36 29 23 13 11 24 30 30 30 30 30 29 29 31 34 37 38 40 42 42 40 36 32
Wind_Direction_500mb
297 297 288 275 255 251 244 229 215 202 194 199 212 217 230 251 269 275 288 291 279 274 273 265 257 245 235 237 240 245 241 237 222 215 217 222 230 216 226 237 220 213 209
293 287 274 256 252 245 229 215 203 194 191 204 205 207 226 254 270 280 289 288 274 275 278 267 247 226 229 237 247 249 242 226 213 198 184 188 185 204 222 229 217 232 224
285 287 267 252 236 223 213 194 185 182 191 195 194 203 232 264 295 298 304 288 276 282 279 247 214 213 226 242 252 241 218 205 205 195 175 161 186 177 200 204 210 218 200
279 280 276 248 229 206 189 176 173 181 186 187 185 199 226 278 313 319 311 292 282 295 273 192 183 208 218 228 229 193 187 197 209 203 207 188 173 176 164 181 195 183 186
292 260 249 227 206 187 172 167 173 178 178 177 177 185 259 298 332 334 316 285 263 210 169 163 160 148 153 192 185 173 176 190 201 208 205 183 170 169 155 168 178 160 165
300 236 206 180 164 162 163 168 171 170 171 171 173 170 22 330 349 339 320 273 219 177 149 138 129 112 119 160 165 176 185 198 212 205 193 188 153 185 176 158 163 153 146
231 171 161 154 155 161 165 167 167 165 167 171 168 159 11 4 354 346 341 166 179 160 142 131 121 111 114 134 163 184 200 206 211 198 194 206 203 213 186 164 158 145 144
164 152 156 154 158 163 167 165 162 160 163 165 160 151 55 18 4 7 99 128 143 147 142 133 128 131 141 132 132 166 179 189 201 204 200 202 217 240 196 170 164 141 143
157 154 158 158 162 167 167 164 158 159 161 162 157 138 66 49 36 59 102 134 143 149 150 154 149 166 188 171 144 143 172 205 198 179 200 200 219 206 169 175 168 162 143
154 158 162 164 166 167 165 160 158 160 160 159 155 147 74 65 54 66 96 142 153 158 160 173 162 165 183 165 152 164 193 179 170 180 200 224 190 173 182 213 169 152 145
158 162 165 167 167 167 164 158 159 159 163 162 163 153 130 72 64 90 111 145 157 162 169 170 172 152 139 128 120 126 161 157 166 176 189 193 178 177 170 170 157 166 168
160 164 166 167 169 168 166 161 162 161 164 163 169 163 194 254 324 176 159 153 155 162 162 158 163 147 129 130 115 109 100 122 139 138 132 111 153 167 159 166 156 152 154
158 166 169 170 172 171 169 165 164 164 165 168 168 176 181 157 331 172 145 136 148 150 144 142 142 134 126 117 113 108 104 104 116 133 138 128 145 160 152 152 160 148 134
164 167 170 173 175 173 171 168 167 168 168 165 157 155 131 92 113 149 139 132 141 141 138 138 140 136 124 117 110 105 100 105 106 110 116 123 135 156 152 158 163 148 151
167 171 173 177 176 174 172 169 169 171 167 159 152 139 114 89 126 131 134 131 131 132 136 141 146 144 126 113 108 104 94 102 110 109 107 104 109 130 132 141 159 156 150
169 174 179 181 177 176 174 172 172 170 166 162 158 144 117 112 116 120 131 134 129 131 127 134 142 147 147 134 125 97 101 109 118 118 110 108 109 122 114 118 127 142 141
175 180 183 184 181 180 176 175 175 173 172 168 166 152 134 126 117 117 126 133 134 137 138 138 143 148 151 148 142 124 127 130 128 134 129 122 118 121 133 124 134 141 140
178 182 184 186 184 181 176 175 177 176 178 175 171 162 150 139 130 114 107 121 141 139 129 128 148 152 147 145 132 122 125 138 138 139 138 130 123 123 137 134 130 140 146
191 188 186 186 182 182 176 177 178 181 182 183 177 173 168 152 143 130 110 110 135 144 127 116 123 153 157 147 135 123 124 136 141 142 139 132 131 130 128 131 133 136 142
187 186 185 186 184 181 179 180 181 185 186 189 182 178 178 177 171 159 143 115 133 141 139 132 120 140 144 145 142 127 134 138 139 142 138 133 136 130 133 132 136 137 140
191 185 186 185 183 181 181 183 185 188 184 190 191 186 186 182 178 170 165 149 140 138 142 141 130 138 137 133 128 135 132 137 148 143 145 145 147 137 131 134 137 142 144
198 190 186 186 185 184 185 187 190 186 184 188 194 192 187 184 179 174 173 168 152 151 139 144 139 140 136 136 136 133 134 139 137 137 141 147 152 142 131 137 137 133 143
200 196 185 186 187 189 192 191 189 186 186 188 192 196 193 191 189 182 184 178 172 168 159 153 155 153 148 143 141 139 133 141 149 148 151 150 152 157 151 149 148 146 144
201 200 193 189 190 191 194 196 186 185 190 191 193 197 199 198 196 194 191 194 188 182 181 175 169 168 169 167 165 162 157 157 161 167 169 169 171 173 171 172 170 168 166
206 204 198 199 194 193 195 196 190 187 191 194 196 199 202 201 202 203 205 203 204 198 189 192 193 187 182 178 176 173 169 168 168 172 178 185 187 188 190 193 196 199 194
211 208 208 208 203 199 197 198 193 194 192 194 197 200 204 205 206 208 208 214 214 211 208 188 181 203 207 195 189 187 187 186 187 187 189 191 192 195 200 205 209 210 208
Wind_Speed_850mb
65 58 38 26 29 44 49 54 58 57 61 52 43 32 24 20 22 23 29 29 27 23 24 24 23 25 25 24 26 28 29 30 26 22 21 21 20 19 20 19 20 19 18
59 39 34 33 38 39 46 51 58 65 55 42 32 25 19 19 18 22 26 23 22 22 23 22 18 20 22 24 25 29 30 32 28 19 18 14 12 16 16 14 16 14 16
47 27 28 30 36 40 46 58 67 56 45 38 30 21 17 13 13 16 20 17 17 16 16 13 15 14 14 16 19 22 26 29 31 24 15 11 14 19 13 14 17 14 14
39 29 27 28 31 40 50 63 57 47 40 34 25 16 11 6 10 16 15 14 10 8 4 11 14 10 8 7 7 14 23 28 26 25 24 15 17 18 12 13 15 13 12
27 31 25 22 27 38 60 57 50 43 37 28 22 12 4 5 11 15 15 12 7 4 6 11 10 7 4 6 12 18 23 22 22 25 23 19 19 20 16 15 15 15 16
23 20 20 23 35 55 61 54 45 40 33 26 19 10 1 4 14 17 15 7 9 10 12 14 14 11 6 7 11 17 19 18 16 16 26 20 8 16 19 16 20 20 18
8 23 36 46 62 69 60 50 43 39 31 25 20 9 2 7 14 17 9 4 11 18 18 17 16 13 9 9 10 13 14 14 13 17 25 24 12 7 9 16 26 25 28
20 31 41 60 70 66 56 49 43 34 29 27 18 10 5 7 10 12 7 14 22 22 19 17 13 11 8 8 6 9 11 9 7 14 23 25 19 4 13 18 38 33 23
29 37 49 65 68 61 53 47 40 31 28 25 18 11 8 6 8 13 13 17 21 22 17 15 11 8 7 4 4 8 9 7 6 17 22 22 15 9 15 16 25 28 26
35 44 54 65 62 53 47 44 33 29 29 23 19 12 5 4 6 9 10 14 18 19 15 14 11 6 8 5 6 6 6 11 14 13 13 13 11 19 15 19 28 23 30
37 45 54 62 57 50 48 41 34 30 29 23 19 13 2 3 2 2 6 12 17 18 14 12 11 6 7 8 8 6 8 15 18 15 15 15 24 27 14 30 27 38 44
38 46 52 61 55 52 49 38 34 30 26 21 17 15 6 1 1 2 7 12 18 18 14 11 11 12 12 16 16 15 18 17 15 16 16 18 27 32 23 32 31 37 36
43 48 53 58 54 52 48 38 33 29 25 21 16 13 6 2 1 9 13 19 19 20 17 17 17 18 22 21 21 20 21 24 21 19 17 20 26 35 29 36 39 39 34
50 53 55 54 51 52 47 38 33 29 25 21 17 13 10 5 5 19 20 19 21 23 24 25 26 22 21 21 22 23 23 27 30 32 34 28 22 29 26 31 36 40 48
49 54 57 54 55 53 47 39 34 30 28 23 21 16 13 12 19 23 24 25 26 25 25 27 25 20 20 22 26 27 27 29 33 35 32 28 23 21 25 31 47 49 50
49 53 57 56 56 55 49 43 39 34 29 26 24 21 18 23 27 25 25 27 25 26 26 23 20 18 21 21 18 15 14 22 29 34 30 30 31 40 39 37 44 53 67
57 63 63 64 58 56 51 46 43 36 30 28 27 26 22 30 28 25 22 22 23 24 22 20 18 17 18 19 16 13 15 21 27 29 28 36 39 40 39 33 39 52 50
54 59 63 66 57 54 50 44 45 39 33 31 31 33 27 27 27 25 21 19 21 21 17 13 14 17 21 25 19 22 21 24 32 35 35 39 40 36 41 47 50 46 45
58 65 66 65 57 57 54 49 48 43 37 35 35 39 34 28 28 24 22 18 20 21 18 15 12 17 19 23 22 21 21 29 35 40 34 43 42 43 46 49 49 46 42
56 61 65 65 57 58 58 54 51 50 43 39 37 41 38 30 28 20 18 16 19 18 17 16 15 20 22 26 29 21 27 38 42 39 43 37 44 47 38 32 34 35 36
51 58 67 70 62 62 62 59 54 56 46 39 39 39 40 31 29 24 21 15 16 19 19 21 24 24 24 28 28 28 26 35 40 40 42 41 41 35 32 36 37 36 37
55 64 69 71 64 62 64 64 61 55 49 43 41 39 42 36 34 29 25 21 16 21 24 26 30 30 29 27 30 30 26 31 47 44 42 45 37 41 36 37 37 35 35
57 63 73 74 69 65 65 66 60 59 55 48 45 41 41 39 38 32 32 26 21 20 26 27 31 33 32 31 31 31 30 32 33 33 41 43 47 38 42 42 36 29 26
57 67 71 80 80 72 65 58 62 62 60 55 49 46 42 46 40 37 32 28 25 23 27 30 29 30 32 32 31 30 30 30 31 33 39 37 35 37 40 36 32 26 22
50 70 79 85 85 80 69 64 62 68 68 61 54 51 49 45 46 44 39 35 29 21 19 26 32 34 33 30 29 31 32 31 31 33 35 37 38 40 42 40 35 29 25
45 66 77 79 83 86 78 69 67 69 69 69 63 59 56 53 51 49 46 41 36 29 23 13 11 24 30 30 30 30 30 29 29 31 34 37 38 40 42 42 40 36 32
Wind_Direction_850mb
297 297 288 275 255 251 244 229 215 202 194 199 212 217 230 251 269 275 288 291 279 274 273 265 257 245 235 237 240 245 241 237 222 215 217 222 230 216 226 237 220 213 209
293 287 274 256 252 245 229 215 203 194 191 204 205 207 226 254 270 280 289 288 274 275 278 267 247 226 229 237 247 249 242 226 213 198 184 188 185 204 222 229 217 232 224
285 287 267 252 236 223 213 194 185 182 191 195 194 203 232 264 295 298 304 288 276 282 279 247 214 213 226 242 252 241 218 205 205 195 175 161 186 177 200 204 210 218 200
279 280 276 248 229 206 189 176 173 181 186 187 185 199 226 278 313 319 311 292 282 295 273 192 183 208 218 228 229 193 187 197 209 203 207 188 173 176 164 181 195 183 186
292 260 249 227 206 187 172 167 173 178 178 177 177 185 259 298 332 334 316 285 263 210 169 163 160 148 153 192 185 173 176 190 201 208 205 183 170 169 155 168 178 160 165
300 236 206 180 164 162 163 168 171 170 171 171 173 170 22 330 349 339 320 273 219 177 149 138 129 112 119 160 165 176 185 198 212 205 193 188 153 185 176 158 163 153 146
231 171 161 154 155 161 165 167 167 165 167 171 168 159 11 4 354 346 341 166 179 160 142 131 121 111 114 134 163 184 200 206 211 198 194 206 203 213 186 164 158 145 144
164 152 156 154 158 163 167 165 162 160 163 165 160 151 55 18 4 7 99 128 143 147 142 133 128 131 141 132 132 166 179 189 201 204 200 202 217 240 196 170 164 141 143
157 154 158 158 162 167 167 164 158 159 161 162 157 138 66 49 36 59 102 134 143 149 150 154 149 166 188 171 144 143 172 205 198 179 200 200 219 206 169 175 168 162 143
154 158 162 164 166 167 165 160 158 160 160 159 155 147 74 65 54 66 96 142 153 158 160 173 162 165 183 165 152 164 193 179 170 180 200 224 190 173 182 213 169 152 145
158 162 165 167 167 167 164 158 159 159 163 162 163 153 130 72 64 90 111 145 157 162 169 170 172 152 139 128 120 126 161 157 166 176 189 193 178 177 170 170 157 166 168
160 164 166 167 169 168 166 161 162 161 164 163 169 163 194 254 324 176 159 153 155 162 162 158 163 147 129 130 115 109 100 122 139 138 132 111 153 167 159 166 156 152 154
158 166 169 170 172 171 169 165 164 164 165 168 168 176 181 157 331 172 145 136 148 150 144 142 142 134 126 117 113 108 104 104 116 133 138 128 145 160 152 152 160 148 134
164 167 170 173 175 173 171 168 167 168 168 165 157 155 131 92 113 149 139 132 141 141 138 138 140 136 124 117 110 105 100 105 106 110 116 123 135 156 152 158 163 148 151
167 171 173 177 176 174 172 169 169 171 167 159 152 139 114 89 126 131 134 131 131 132 136 141 146 144 126 113 108 104 94 102 110 109 107 104 109 130 132 141 159 156 150
169 174 179 181 177 176 174 172 172 170 166 162 158 144 117 112 116 120 131 134 129 131 127 134 142 147 147 134 125 97 101 109 118 118 110 108 109 122 114 118 127 142 141
175 180 183 184 181 180 176 175 175 173 172 168 166 152 134 126 117 117 126 133 134 137 138 138 143 148 151 148 142 124 127 130 128 134 129 122 118 121 133 124 134 141 140
178 182 184 186 184 181 176 175 177 176 178 175 171 162 150 139 130 114 107 121 141 139 129 128 148 152 147 145 132 122 125 138 138 139 138 130 123 123 137 134 130 140 146
191 188 186 186 182 182 176 177 178 181 182 183 177 173 168 152 143 130 110 110 135 144 127 116 123 153 157 147 135 123 124 136 141 142 139 132 131 130 128 131 133 136 142
187 186 185 186 184 181 179 180 181 185 186 189 182 178 178 177 171 159 143 115 133 141 139 132 120 140 144 145 142 127 134 138 139 142 138 133 136 130 133 132 136 137 140
191 185 186 185 183 181 181 183 185 188 184 190 191 186 186 182 178 170 165 149 140 138 142 141 130 138 137 133 128 135 132 137 148 143 145 145 147 137 131 134 137 142 144
198 190 186 186 185 184 185 187 190 186 184 188 194 192 187 184 179 174 173 168 152 151 139 144 139 140 136 136 136 133 134 139 137 137 141 147 152 142 131 137 137 133 143
200 196 185 186 187 189 192 191 189 186 186 188 192 196 193 191 189 182 184 178 172 168 159 153 155 153 148 143 141 139 133 141 149 148 151 150 152 157 151 149 148 146 144
201 200 193 189 190 191 194 196 186 185 190 191 193 197 199 198 196 194 191 194 188 182 181 175 169 168 169 167 165 162 157 157 161 167 169 169 171 173 171 172 170 168 166
206 204 198 199 194 193 195 196 190 187 191 194 196 199 202 201 202 203 205 203 204 198 189 192 193 187 182 178 176 173 169 168 168 172 178 185 187 188 190 193 196 199 194
211 208 208 208 203 199 197 198 193 194 192 194 197 200 204 205 206 208 208 214 214 211 208 188 181 203 207 195 189 187 187 186 187 187 189 191 192 195 200 205 209 210 208